{"data":{"norad_id":65180,"intl_designator":"2025-175G","name":"STARLINK-34862","alt_names":[],"object_type":"PAYLOAD","status":"ACTIVE","operator":null,"country":"US","launch_date":"2025-08-14","launch_site_code":"AFWTR","launch_vehicle":null,"mission":null,"orbit_class":"UNKNOWN","rcs_meters":null,"size_class":null,"mass_kg":null,"dimensions":null,"purposes":["comms"],"wikipedia_slug":null,"has_3d_model":false,"image_url":null,"decayed_at":null,"tle_current":{"epoch":"2026-09-20T21:20:42.755136Z","epoch_age_seconds":86773,"freshness":"FRESH","line1":"1 65180U 25175G   26263.88938374  .00011912  00000+0  37077-3 0  9999","line2":"2 65180  97.2844 132.8810 0001511  82.8903 277.2512 15.33439038 62190","mean_motion":15.33439038,"eccentricity":0.0001511,"inclination_deg":97.2844,"raan_deg":132.881,"arg_perigee_deg":82.8903,"mean_anomaly_deg":277.2512,"bstar":0.00037077,"rev_number":6219,"period_min":93.906569763486,"perigee_km":464.52683049829,"apogee_km":466.59499600767,"semimajor_km":6843.697913253,"source":"CELESTRAK","updated_at":"2026-09-21T09:00:35.528502Z"}}}